Home > Time Zones > World Clock > Weather > U.S.A. > Hilo > Past weeks

Flag for U.S.A. Weather past 2 weeks in Hilo, Hawaii, U.S.A.

Now
84 °F

Scattered clouds.


Feels Like: 90 °F
Forecast: 73 / 83 °F
Wind: 5 mph from South

Location: Hilo International Airport

Current Time: Sep 1, 2014 at 11:05:15 AM

Latest Report: Sep 1, 2014 at 9:53 AM


Visibility: 10 mi

Pressure: 30.03 "Hg

Humidity: 67%

Dew point: 72 °F

Location of HiloLocation

Historic Weather in Hilo — Graph

°F

Hilo temperature yesterday

Maximum temperature yesterday: 87 °F (at 10:53 AM)
Minimum temperature yesterday: 71 °F (at 1:53 AM)
Average temperature yesterday: 77 °F

Past Weeks' High & Low Weather Summary

 TemperatureHumidityPressure
High87 °F (Aug 31, 10:53 AM)100% (Aug 20, 9:16 PM)30.06 "Hg (Aug 20, 9:16 PM)
Low67 °F (Aug 28, 4:53 AM)49% (Aug 30, 11:53 AM)29.84 "Hg (Aug 28, 3:53 PM)
Average77 °F79%29.96 "Hg
* Reported Aug 17 9:53 AM — Sep 1 9:53 AM, Hilo, Weather by CustomWeather, © 2014

Note: Actual official high and low records may vary slightly from our data, if they occured in-between our weather recording intervals... More about our weather records

Advertising

Hilo weather history for previous 24 hours

 ConditionsComfort  
Time TempWeatherWind HumidityBarometerVisibility
9:53 AM
Sep 1
84 °FScattered clouds.5 mph67%30.03 "Hg10 mi
8:53 AM82 °FScattered clouds.7 mph72%30.03 "Hg10 mi
7:53 AM79 °FSunny.5 mph79%30.03 "Hg10 mi
7:33 AM77 °FScattered clouds.6 mph83%30.03 "Hg10 mi
6:53 AM74 °FPassing clouds.6 mph88%30.02 "Hg10 mi
6:32 AM73 °FPartly sunny.3 mph89%30.02 "Hg10 mi
5:53 AM74 °FPassing clouds.5 mph88%30.00 "Hg10 mi
4:53 AM75 °FOvercast.6 mph88%29.99 "Hg10 mi
3:53 AM74 °FOvercast.3 mph88%29.98 "Hg10 mi
2:53 AM74 °FOvercast.5 mph88%29.99 "Hg10 mi
1:53 AM75 °FOvercast.5 mph88%30.01 "Hg10 mi
12:53 AM75 °FOvercast.6 mph88%30.03 "Hg10 mi
11:53 PM
Aug 31
75 °FOvercast.6 mph88%30.04 "Hg10 mi
10:53 PM74 °FOvercast.5 mph91%30.06 "Hg10 mi
9:53 PM74 °FOvercast.7 mph94%30.06 "Hg10 mi
9:25 PM73 °FLight rain. Mostly cloudy.6 mph94%30.06 "Hg10 mi
8:53 PM75 °FLight rain. Mostly cloudy.6 mph90%30.04 "Hg10 mi
8:20 PM75 °FLight rain. Overcast.8 mph94%30.04 "Hg10 mi
7:53 PM76 °FLight rain. Mostly cloudy.8 mph91%30.03 "Hg10 mi
6:53 PM76 °FMostly cloudy.6 mph91%30.01 "Hg10 mi
5:53 PM76 °FOvercast.8 mph91%29.98 "Hg10 mi
5:27 PM77 °FMostly cloudy.7 mph89%29.98 "Hg10 mi
4:53 PM79 °FOvercast.9 mph84%29.96 "Hg10 mi
3:53 PM81 °FMostly cloudy.15 mph77%29.95 "Hg10 mi
2:53 PM82 °FCloudy.13 mph72%29.95 "Hg10 mi
1:53 PM84 °FBroken clouds.17 mph70%29.95 "Hg10 mi
12:53 PM85 °FPartly sunny.18 mph68%29.96 "Hg10 mi
11:53 AM85 °FBroken clouds.13 mph65%29.98 "Hg10 mi
Weather by CustomWeather, © 2014

See weather overviewHow to use our weather pages